Regional Weather Roundup
Issued by NWS Sterling, VA

Home | Current Version | Previous Version | Text Only | Print | Product List | Glossary On
Versions: 1 2 3 4 5 6 7 8 9 10 11 12 13 14 15 16 17 18 19 20 21 22 23 24 25 26 27 28 29 30 31 32 33 34 35 36 37 38 39 40 41 42 43 44 45 46 47 48 49 50
000
ASUS41 KLWX 300211
RWRLWX

REGIONAL WEATHER ROUNDUP
NATIONAL WEATHER SERVICE BALTIMORE MD/WASHINGTON DC
1000 PM EDT MON MAY 29 2017

Note: "FAIR" indicates few or no clouds below 12,000 feet
with no significant weather and/or obstructions to visibility.
 TC=TEMPERATURE CELSIUS

 * =Non NWS site. Station does not report precipitation (e.g. rain,
    snow, etc.), thunder, or fog.

DCZ001-MDZ009-015-VAZ040>042-051-053>054-300300-
WASHINGTON METRO

CITY           SKY/WX    TMP DP  RH WIND       PRES   REMARKS
WASHINGTON NAT MOCLDY    72  67  84 VRB5      30.01R
DULLES         CLOUDY    69  57  65 SE5       29.99R
ANDREWS AFB    CLOUDY    69  65  88 E10       30.00R
FT BELVOIR     MOCLDY    68  63  83 SE3       30.00R
QUANTICO       CLOUDY    73  67  81 S7        30.00R
COLLEGE PARK*  CLOUDY    69  64  85 E6        30.01R
LEESBURG*      CLOUDY    72  64  78 CALM      30.01R
MANASSAS*      CLOUDY    68  63  84 CALM      30.00R
GAITHERSBURG*  PTCLDY    68  64  87 SE7       30.02R

$$

MDZ006>007-011-014-300300-
BALTIMORE METRO

CITY           SKY/WX    TMP DP  RH WIND       PRES   REMARKS
BWI AIRPORT    CLOUDY    67  65  93 E8        30.02R
MD SCIENCE CTR   N/A     67  63  87 MISG      30.02R
MARTIN STATE   CLOUDY    64  63  94 E10       30.04R
ANNAPOLIS      CLOUDY    68  66  93 SE9       30.03R
FORT MEADE*    CLOUDY    66  63  88 E7        30.04R

$$

MDZ012-015-019>023-300300-
MARYLAND EASTERN SHORE

CITY           SKY/WX    TMP DP  RH WIND       PRES   REMARKS
OCEAN CITY     CLOUDY    58  56  93 SE9       30.09R
SALISBURY      CLOUDY    59  58  96 E10       30.08R
BAY BRIDGE AP* MOCLDY    64  61  88 SE14      30.03R
EASTON*        MOCLDY    63  57  82 SE8       30.08R

$$

MDZ017>025-300300-
SOUTHERN MARYLAND

CITY           SKY/WX    TMP DP  RH WIND       PRES   REMARKS
PATUXENT RIVER CLOUDY    66  65  96 SE17G23   30.02R
ST INIGOES     CLOUDY    66  63  90 SE14      30.03R
LEONARDTOWN*   CLOUDY    68  63  83 E7        30.04R

$$

MDZ003>005-300300-
NORTH CENTRAL MARYLAND

CITY           SKY/WX    TMP DP  RH WIND       PRES   REMARKS
FREDERICK*     PTCLDY    70  68  94 SE6       30.01
HAGERSTOWN APT CLOUDY    71  59  65 S5        29.97R
WESTMINSTER*   MOCLDY    66  64  94 SE12      30.00S

$$

MDZ501>502-300300-
WESTERN MARYLAND

CITY           SKY/WX    TMP DP  RH WIND       PRES   REMARKS
OAKLAND*         N/A     59  52  77 S6        30.07S
CUMBERLAND*    CLOUDY    66  61  82 CALM      30.03R

$$

VAZ025>031-300300-
SHENANDOAH VALLEY

CITY           SKY/WX    TMP DP  RH WIND       PRES   REMARKS
WINCHESTER*    CLOUDY    63  61  94 CALM      29.99R
FRONT ROYAL*   MOCLDY    68  61  77 S5        30.00R
LURAY*         CLOUDY    66  63  88 W5        30.01R
NEW MARKET*    CLOUDY    63  59  86 CALM      30.00R
STAUNTON*      PTCLDY    64  57  79 CALM      30.05R
WAYNESBORO*    CLOUDY    65  56  74 SW3       30.04R

$$

WVZ021-048>050-054>055-300300-
EASTERN WEST VIRGINIA PANHANDLE

CITY           SKY/WX    TMP DP  RH WIND       PRES   REMARKS
MARTINSBURG    PTCLDY    65  61  87 S5        29.97R
PETERSBURG*    CLOUDY    63  60  93 CALM      30.02R

$$

VAZ036>039-050-300300-
CENTRAL FOOTHILLS

CITY           SKY/WX    TMP DP  RH WIND       PRES   REMARKS
CHARLOTTESVILL CLOUDY    71  64  78 CALM      30.01R
CULPEPER*      CLOUDY    66  65  94 CALM      30.01R
ORANGE*        MOCLDY    64  63  94 CALM      30.00R
GORDONSVILLE*  PTCLDY    65  65 100 CALM      30.00R
WARRENTON*     MOCLDY    67  60  79 CALM      29.99R

$$

VAZ055>057-300300-
NORTH AND CENTRAL PIEDMONT

CITY           SKY/WX    TMP DP  RH WIND       PRES   REMARKS
FREDERICKSBRG* CLOUDY    69  66  89 CALM      29.99R
STAFFORD*      CLOUDY    65  65 100 CALM      30.03R

$$

NCZ024-NYZ072-PAZ021-071-VAZ022-071-300300-
OTHER REGIONAL OBSERVATIONS

CITY           SKY/WX    TMP DP  RH WIND       PRES   REMARKS
NEW YORK CITY  CLOUDY    57  54  88 E7        30.11R
PHILADELPHIA   CLOUDY    60  53  77 SE12      30.07R
PITTSBURGH     MOCLDY    64  58  80 S5        29.96R
ROANOKE        CLOUDY    71  58  63 NE3       30.06R
RICHMOND       CLOUDY    76  67  73 E5        30.00R
RALEIGH        LGT RAIN  74  68  81 W7G16     30.05R

$$

ANZ530>537-300300-
MARINE OBSERVATIONS

STATION/POSITION TIME  TEMP    WIND        PRES
                       AIR SEA DIR/SP/G
                 (UTC) (F)     (DEG/KT/KT) (MB)
THOMAS PT LIGHT  0200   65 66  110/ 12/ 13   N/A
BALT KEY BRIDGE  0148   65     100/ 12/ 14 1016.4R
COVE POINT       0148   67     180/ 17/ 20 1017.3R
LEWISETTA        0148   67 72  150/ 10/ 13 1016.8R
SOLOMONS ISLAND  0136   67 70  140/ 16/ 19   N/A
PINEY POINT      0142          150/ 20/ 21   N/A

$$




USA.gov is the U.S. government's official web portal to all federal, state and local government web resources and services.